Meath Environmental Platform

Observations for Trim Market St

Time AQI Temp °C Hum % Pres Pa CO μg/m³ H₂S μg/m³ NO μg/m³ NO₂ μg/m³ O₃ μg/m³ SO₂ μg/m³ PM1 μg/m³ PM2.5 μg/m³ PM10 μg/m³
Friday 14 August 2026
13:13 2 31.3 33 66,145 0 15.4 0.44 14.72 91.96 0.22 0 2.64 2.9
13:12 2 31.4 33 66,135 0 19.85 0.44 15.22 89.51 0.23 0 3.19 3.5
13:11 2 31.4 33 66,119 0 12.25 0.45 14.57 88.76 0 0 2.65 2.92
13:10 2 31.5 33 66,131 0 13.83 0.54 14.15 68.41 0 0 2.65 2.91
13:09 2 31.5 33 66,139 0.06 17.32 0.56 18.24 80.39 0 0 2.65 2.91
13:08 2 31.6 33 66,153 0 15.22 0.51 22.24 88.04 0 0.71 3.73 4.11
13:07 2 31.6 33 66,169 0 11.19 0.48 45.97 55.5 0 0 3.19 3.51
13:06 2 31.6 33 66,165 0 9.9 0.45 40.69 58.17 0 0.71 4.26 4.69
13:05 2 31.7 33 66,155 0 10.35 0.42 13.04 93.16 0.6 0 2.66 2.93
13:04 2 31.7 33 66,141 0 17.63 0.41 15.77 92.8 0.24 0 2.66 2.92
13:03 2 31.8 32 66,155 0 20.39 0.43 19.82 98.54 0.14 0 2.66 2.93
13:02 2 31.8 32 66,167 0 14.37 0.47 17.87 90.83 0 0 2.67 2.93
13:01 2 31.8 32 66,186 0 17.73 0.47 54.81 58.89 0 0.71 3.22 3.54
12:59 2 31.9 32 66,184 0 14.29 0.37 14.94 89.64 0 0 2.67 2.94
12:58 2 31.9 32 66,180 0 19.63 0.36 23.89 80.18 0.22 0.71 3.22 3.54
12:53 2 32.3 32 66,246 0 11.25 0.31 14.17 102.57 0.2 0 2.7 2.97
12:52 2 32.3 32 66,258 0 9.5 0.32 11.8 78.32 0.93 0 2.7 2.97
12:50 2 32.5 31 66,286 0 17.74 0.31 15.92 110.8 1.26 0 2.73 3
12:43 2 33.1 30 66,296 0 12.16 0.25 13.89 80.11 1.19 0 2.77 3.05
12:41 2 33.4 30 66,311 0 12.7 0.25 14.5 103.22 1.14 0 2.78 3.05